| time (UTC) | temp C | wind direction | speed KPH | gust KPH | rain 1hr cm | rain 24hr cm | rain mn cm | humidity % | barometer mb |
| 20260509043054 | 9 | 0 | 0.0 | 0.0 | 0.00 | 0.03 | 0.00 | 59 | 1005.6 |
| 20260509041554 | 10 | 0 | 0.0 | 1.6 | 0.00 | 0.03 | 0.00 | 62 | 1005.7 |
| 20260509040054 | 10 | 0 | 0.0 | 3.2 | 0.00 | 0.03 | 0.00 | 50 | 1006.0 |
| 20260509034551 | 10 | 0 | 0.0 | 0.0 | 0.00 | 0.03 | 0.03 | 54 | 1006.0 |
| 20260509033101 | 10 | 0 | 0.0 | 1.6 | 0.00 | 0.03 | 0.03 | 62 | 1006.1 |
| 20260509031554 | 8 | 0 | 0.0 | 0.0 | 0.00 | 0.03 | 0.03 | 53 | 1006.3 |
| 20260509030055 | 8 | 0 | 0.0 | 0.0 | 0.00 | 0.03 | 0.03 | 65 | 1006.6 |
| 20260509024552 | 8 | 0 | 0.0 | 0.0 | 0.00 | 0.03 | 0.03 | 66 | 1006.7 |
| 20260509023050 | 8 | 0 | 0.0 | 0.0 | 0.00 | 0.03 | 0.03 | 59 | 1006.6 |
| 20260509021601 | 9 | 0 | 0.0 | 0.0 | 0.00 | 0.03 | 0.03 | 55 | 1006.7 |
| 20260509020057 | 10 | 0 | 0.0 | 0.0 | 0.00 | 0.03 | 0.03 | 52 | 1006.6 |
| 20260509014553 | 11 | 0 | 0.0 | 0.0 | 0.00 | 0.03 | 0.03 | 51 | 1006.6 |
| 20260509013107 | 11 | 0 | 0.0 | 0.0 | 0.00 | 0.03 | 0.03 | 49 | 1006.4 |
| 20260509011554 | 13 | 0 | 0.0 | 0.0 | 0.00 | 0.03 | 0.03 | 42 | 1006.2 |
| 20260509010054 | 14 | 0 | 0.0 | 1.6 | 0.00 | 0.03 | 0.03 | 44 | 1006.0 |
| 20260509004607 | 15 | 249 | 0.0 | 3.2 | 0.00 | 0.03 | 0.03 | 32 | 1006.0 |
| 20260509003053 | 15 | 0 | 0.0 | 1.6 | 0.00 | 0.03 | 0.03 | 30 | 1005.9 |
| 20260509001556 | 15 | 262 | 0.0 | 9.7 | 0.00 | 0.03 | 0.03 | 30 | 1006.0 |
| 20260509000055 | 15 | 289 | 3.2 | 11.3 | 0.00 | 0.03 | 0.03 | 28 | 1005.9 |
| 20260508234555 | 16 | 289 | 3.2 | 11.3 | 0.00 | 0.03 | 0.03 | 28 | 1005.8 |
| 20260508233100 | 16 | 288 | 6.4 | 14.5 | 0.00 | 0.03 | 0.03 | 27 | 1005.8 |
| 20260508231557 | 17 | 256 | 6.4 | 20.9 | 0.00 | 0.03 | 0.03 | 26 | 1005.7 |
| 20260508230057 | 17 | 286 | 6.4 | 17.7 | 0.00 | 0.03 | 0.03 | 27 | 1005.8 |
| 20260508224610 | 17 | 158 | 6.4 | 17.7 | 0.00 | 0.03 | 0.03 | 27 | 1005.9 |
| 20260508223054 | 17 | 317 | 4.8 | 16.1 | 0.00 | 0.03 | 0.03 | 26 | 1006.0 |
| 20260508221552 | 16 | 208 | 11.3 | 20.9 | 0.00 | 0.03 | 0.03 | 26 | 1006.1 |
| 20260508220057 | 16 | 252 | 11.3 | 29.0 | 0.00 | 0.03 | 0.03 | 26 | 1006.3 |
| 20260508214551 | 16 | 166 | 14.5 | 27.4 | 0.00 | 0.03 | 0.03 | 27 | 1006.4 |
| 20260508213055 | 16 | 207 | 11.3 | 19.3 | 0.00 | 0.03 | 0.03 | 27 | 1006.6 |
| 20260508211553 | 16 | 210 | 4.8 | 19.3 | 0.00 | 0.03 | 0.03 | 29 | 1006.6 |
| 20260508210053 | 16 | 270 | 9.7 | 22.5 | 0.00 | 0.03 | 0.03 | 29 | 1006.6 |
| 20260508204553 | 16 | 155 | 11.3 | 20.9 | 0.00 | 0.03 | 0.03 | 30 | 1006.9 |
| 20260508203056 | 16 | 223 | 12.9 | 20.9 | 0.00 | 0.03 | 0.03 | 29 | 1007.1 |
| 20260508201551 | 15 | 187 | 9.7 | 32.2 | 0.00 | 0.03 | 0.03 | 30 | 1007.1 |
| 20260508200103 | 15 | 188 | 14.5 | 29.0 | 0.00 | 0.03 | 0.03 | 30 | 1007.4 |
| 20260508194557 | 15 | 258 | 4.8 | 22.5 | 0.00 | 0.03 | 0.03 | 30 | 1007.5 |
| 20260508193048 | 15 | 310 | 8.0 | 22.5 | 0.00 | 0.03 | 0.03 | 31 | 1007.7 |
| 20260508191553 | 15 | 199 | 8.0 | 27.4 | 0.00 | 0.03 | 0.03 | 32 | 1007.9 |
| 20260508190054 | 15 | 237 | 1.6 | 20.9 | 0.00 | 0.03 | 0.03 | 30 | 1008.0 |
| 20260508184553 | 15 | 246 | 11.3 | 20.9 | 0.00 | 0.03 | 0.03 | 30 | 1008.6 |
| 20260508183054 | 14 | 255 | 8.0 | 24.1 | 0.00 | 0.03 | 0.03 | 30 | 1008.6 |
| 20260508181556 | 15 | 269 | 8.0 | 19.3 | 0.00 | 0.03 | 0.03 | 31 | 1008.8 |
| 20260508180056 | 14 | 263 | 11.3 | 25.7 | 0.00 | 0.03 | 0.03 | 31 | 1008.9 |
| 20260508174608 | 14 | 242 | 12.9 | 22.5 | 0.00 | 0.03 | 0.03 | 30 | 1009.4 |
| 20260508173052 | 13 | 173 | 8.0 | 17.7 | 0.00 | 0.03 | 0.03 | 32 | 1009.4 |
| 20260508171551 | 13 | 156 | 12.9 | 22.5 | 0.00 | 0.03 | 0.03 | 31 | 1009.7 |
| 20260508170054 | 13 | 165 | 3.2 | 16.1 | 0.00 | 0.03 | 0.03 | 33 | 1009.8 |
| 20260508164557 | 13 | 194 | 8.0 | 22.5 | 0.00 | 0.03 | 0.03 | 34 | 1010.0 |
| 20260508163053 | 12 | 315 | 9.7 | 19.3 | 0.00 | 0.03 | 0.03 | 33 | 1010.2 |
| 20260508161551 | 12 | 188 | 6.4 | 22.5 | 0.00 | 0.03 | 0.03 | 33 | 1010.1 |
| 20260508160055 | 12 | 181 | 11.3 | 19.3 | 0.00 | 0.03 | 0.03 | 33 | 1010.3 |
| 20260508154554 | 12 | 196 | 9.7 | 14.5 | 0.00 | 0.03 | 0.03 | 36 | 1010.3 |
| 20260508153055 | 12 | 223 | 8.0 | 17.7 | 0.00 | 0.03 | 0.03 | 39 | 1010.3 |
| 20260508151600 | 11 | 230 | 4.8 | 14.5 | 0.00 | 0.03 | 0.03 | 42 | 1010.6 |
| 20260508150056 | 11 | 257 | 6.4 | 17.7 | 0.00 | 0.03 | 0.03 | 42 | 1010.7 |
| 20260508144553 | 11 | 305 | 1.6 | 19.3 | 0.00 | 0.03 | 0.03 | 45 | 1010.9 |
| 20260508143056 | 11 | 188 | 1.6 | 12.9 | 0.00 | 0.03 | 0.03 | 48 | 1010.9 |
| 20260508141550 | 10 | 148 | 3.2 | 14.5 | 0.00 | 0.03 | 0.03 | 53 | 1011.0 |
| 20260508140058 | 10 | 261 | 4.8 | 14.5 | 0.00 | 0.03 | 0.03 | 51 | 1011.1 |
| 20260508134554 | 9 | 165 | 8.0 | 16.1 | 0.00 | 0.03 | 0.03 | 59 | 1011.2 |
| 20260508133103 | 8 | 164 | 6.4 | 12.9 | 0.00 | 0.03 | 0.03 | 61 | 1011.3 |
| 20260508131559 | 8 | 140 | 6.4 | 11.3 | 0.00 | 0.03 | 0.03 | 61 | 1011.5 |
| 20260508130105 | 7 | 154 | 6.4 | 9.7 | 0.00 | 0.03 | 0.03 | 67 | 1011.5 |
| 20260508124556 | 7 | 153 | 4.8 | 8.0 | 0.03 | 0.03 | 0.03 | 75 | 1011.3 |
| 20260508123059 | 6 | 160 | 3.2 | 6.4 | 0.03 | 0.03 | 0.03 | 83 | 1011.3 |
| 20260508121620 | 4 | 167 | 1.6 | 4.8 | 0.03 | 0.03 | 0.03 | 90 | 1011.0 |
| 20260508120101 | 3 | 138 | 1.6 | 4.8 | 0.03 | 0.03 | 0.03 | 95 | 1010.9 |
| 20260508114557 | 2 | 0 | 0.0 | 0.0 | 0.00 | 0.00 | 0.00 | 94 | 1010.9 |
| 20260508113105 | 1 | 0 | 0.0 | 0.0 | 0.00 | 0.00 | 0.00 | 93 | 1010.8 |
| 20260508111602 | 1 | 0 | 0.0 | 0.0 | 0.00 | 0.00 | 0.00 | 93 | 1010.6 |
| 20260508110058 | 1 | 0 | 0.0 | 0.0 | 0.00 | 0.00 | 0.00 | 93 | 1010.6 |
| 20260508104559 | 1 | 0 | 0.0 | 0.0 | 0.00 | 0.00 | 0.00 | 93 | 1010.7 |
| 20260508103051 | 1 | 0 | 0.0 | 0.0 | 0.00 | 0.00 | 0.00 | 92 | 1010.7 |
| 20260508101553 | 1 | 0 | 0.0 | 0.0 | 0.00 | 0.00 | 0.00 | 91 | 1010.7 |
| 20260508100051 | 1 | 0 | 0.0 | 0.0 | 0.00 | 0.00 | 0.00 | 91 | 1010.6 |
| 20260508094552 | 1 | 0 | 0.0 | 0.0 | 0.00 | 0.00 | 0.00 | 92 | 1010.6 |
| 20260508093055 | 2 | 0 | 0.0 | 0.0 | 0.00 | 0.00 | 0.00 | 91 | 1010.6 |
| 20260508091557 | 2 | 0 | 0.0 | 0.0 | 0.00 | 0.00 | 0.00 | 92 | 1010.8 |
| 20260508090059 | 2 | 0 | 0.0 | 0.0 | 0.00 | 0.00 | 0.00 | 90 | 1010.9 |
| 20260508084551 | 2 | 0 | 0.0 | 0.0 | 0.00 | 0.00 | 0.00 | 90 | 1010.9 |
| 20260508083054 | 3 | 0 | 0.0 | 0.0 | 0.00 | 0.00 | 0.00 | 90 | 1010.8 |
| 20260508081605 | 3 | 0 | 0.0 | 0.0 | 0.00 | 0.00 | 0.00 | 90 | 1010.9 |
| 20260508080053 | 3 | 0 | 0.0 | 0.0 | 0.00 | 0.00 | 0.00 | 89 | 1010.9 |
| 20260508074550 | 4 | 0 | 0.0 | 0.0 | 0.00 | 0.00 | 0.00 | 88 | 1010.9 |
| 20260508073104 | 5 | 0 | 0.0 | 0.0 | 0.00 | 0.00 | 0.00 | 88 | 1010.9 |
| 20260508071618 | 5 | 0 | 0.0 | 0.0 | 0.00 | 0.00 | 0.00 | 86 | 1010.9 |
| 20260508064554 | 5 | 0 | 1.6 | 6.4 | 0.00 | 0.00 | 0.00 | 84 | 1010.8 |
| 20260508063057 | 5 | 0 | 0.0 | 0.0 | 0.00 | 0.00 | 0.00 | 85 | 1011.0 |
| 20260508061555 | 5 | 0 | 0.0 | 1.6 | 0.00 | 0.00 | 0.00 | 87 | 1010.8 |
| 20260508060053 | 5 | 180 | 1.6 | 6.4 | 0.00 | 0.00 | 0.00 | 86 | 1011.2 |
| 20260508054602 | 5 | 153 | 1.6 | 3.2 | 0.00 | 0.00 | 0.00 | 86 | 1011.2 |
| 20260508053055 | 5 | 0 | 0.0 | 3.2 | 0.00 | 0.00 | 0.00 | 85 | 1011.2 |
| 20260508051553 | 6 | 256 | 0.0 | 3.2 | 0.00 | 0.00 | 0.00 | 82 | 1011.4 |
| 20260508050054 | 6 | 0 | 1.6 | 4.8 | 0.00 | 0.00 | 0.00 | 80 | 1011.1 |
| 20260508044559 | 6 | 0 | 0.0 | 3.2 | 0.00 | 0.00 | 0.00 | 80 | 1011.2 |